owner,sensor,date,latitude,longitude,vertical_datum,mass_concentration_of_oxygen_in_sea_water,qcFlag 
DISL,ioos:station:DISL:MHPA:1,2009-11-02T00:00:00Z,30.6671,-87.9365,3.758,8.11,1111122 
DISL,ioos:station:DISL:MHPA:1,2009-11-02T00:30:00Z,30.6671,-87.9365,3.838,8.06,1111122 
DISL,ioos:station:DISL:MHPA:1,2009-11-02T01:00:00Z,30.6671,-87.9365,3.978,7.99,1111122 
DISL,ioos:station:DISL:MHPA:1,2009-11-02T01:30:00Z,30.6671,-87.9365,4.078,7.92,1111122 
DISL,ioos:station:DISL:MHPA:1,2009-11-02T02:00:00Z,30.6671,-87.9365,4.106,7.94,1111122 
DISL,ioos:station:DISL:MHPA:1,2009-11-02T02:30:00Z,30.6671,-87.9365,4.182,7.91,1111122 
DISL,ioos:station:DISL:MHPA:1,2009-11-02T03:00:00Z,30.6671,-87.9365,4.178,7.83,1111122 
DISL,ioos:station:DISL:MHPA:1,2009-11-02T03:30:00Z,30.6671,-87.9365,4.15,7.89,1111122 
DISL,ioos:station:DISL:MHPA:1,2009-11-02T04:00:00Z,30.6671,-87.9365,4.119,7.87,1111122 
DISL,ioos:station:DISL:MHPA:1,2009-11-02T04:30:00Z,30.6671,-87.9365,4.105,7.85,1111122 
DISL,ioos:station:DISL:MHPA:1,2009-11-02T05:00:00Z,30.6671,-87.9365,4.076,7.91,1111122 
DISL,ioos:station:DISL:MHPA:1,2009-11-02T05:30:00Z,30.6671,-87.9365,3.994,7.88,1111122 
DISL,ioos:station:DISL:MHPA:1,2009-11-02T06:00:00Z,30.6671,-87.9365,3.898,7.85,1111122 
DISL,ioos:station:DISL:MHPA:1,2009-11-02T06:30:00Z,30.6671,-87.9365,3.79,7.77,1111122 
DISL,ioos:station:DISL:MHPA:1,2009-11-02T07:00:00Z,30.6671,-87.9365,3.691,7.69,1111122 
DISL,ioos:station:DISL:MHPA:1,2009-11-02T07:30:00Z,30.6671,-87.9365,3.575,7.66,1111122 
DISL,ioos:station:DISL:MHPA:1,2009-11-02T08:00:00Z,30.6671,-87.9365,3.464,7.58,1111122 
DISL,ioos:station:DISL:MHPA:1,2009-11-02T08:30:00Z,30.6671,-87.9365,3.374,7.45,1111122 
DISL,ioos:station:DISL:MHPA:1,2009-11-02T09:00:00Z,30.6671,-87.9365,3.281,7.33,1111122 
DISL,ioos:station:DISL:MHPA:1,2009-11-02T09:30:00Z,30.6671,-87.9365,3.171,7.25,1111122 
DISL,ioos:station:DISL:MHPA:1,2009-11-02T10:00:00Z,30.6671,-87.9365,3.064,7.25,1111122 
DISL,ioos:station:DISL:MHPA:1,2009-11-02T10:30:00Z,30.6671,-87.9365,2.972,7.28,1111122 
DISL,ioos:station:DISL:MHPA:1,2009-11-02T11:00:00Z,30.6671,-87.9365,2.888,7.2,1111122 
DISL,ioos:station:DISL:MHPA:1,2009-11-02T11:30:00Z,30.6671,-87.9365,2.807,7.2,1111122 
DISL,ioos:station:DISL:MHPA:1,2009-11-02T12:00:00Z,30.6671,-87.9365,2.736,7.08,1111122 
DISL,ioos:station:DISL:MHPA:1,2009-11-02T12:30:00Z,30.6671,-87.9365,2.637,6.99,1111122 
DISL,ioos:station:DISL:MHPA:1,2009-11-02T13:00:00Z,30.6671,-87.9365,2.556,7.04,1111122 
DISL,ioos:station:DISL:MHPA:1,2009-11-02T13:30:00Z,30.6671,-87.9365,2.511,7.05,1111122 
DISL,ioos:station:DISL:MHPA:1,2009-11-02T14:00:00Z,30.6671,-87.9365,2.486,7.03,1111122 
DISL,ioos:station:DISL:MHPA:1,2009-11-02T14:30:00Z,30.6671,-87.9365,2.511,6.95,1111122 
DISL,ioos:station:DISL:MHPA:1,2009-11-02T15:00:00Z,30.6671,-87.9365,2.584,7.02,1111122 
DISL,ioos:station:DISL:MHPA:1,2009-11-02T15:30:00Z,30.6671,-87.9365,2.639,7.22,1111122 
DISL,ioos:station:DISL:MHPA:1,2009-11-02T16:00:00Z,30.6671,-87.9365,2.739,7.27,1111122 
DISL,ioos:station:DISL:MHPA:1,2009-11-02T16:30:00Z,30.6671,-87.9365,2.841,7.39,1111122 
DISL,ioos:station:DISL:MHPA:1,2009-11-02T17:00:00Z,30.6671,-87.9365,2.947,7.41,1111122 
DISL,ioos:station:DISL:MHPA:1,2009-11-02T17:30:00Z,30.6671,-87.9365,3.049,7.48,1111122 
DISL,ioos:station:DISL:MHPA:1,2009-11-02T18:00:00Z,30.6671,-87.9365,3.128,7.53,1111122 
DISL,ioos:station:DISL:MHPA:1,2009-11-02T18:30:00Z,30.6671,-87.9365,3.242,7.66,1111122 
DISL,ioos:station:DISL:MHPA:1,2009-11-02T19:00:00Z,30.6671,-87.9365,3.343,7.58,1111122 
DISL,ioos:station:DISL:MHPA:1,2009-11-02T19:30:00Z,30.6671,-87.9365,3.461,7.69,1111122 
DISL,ioos:station:DISL:MHPA:1,2009-11-02T20:00:00Z,30.6671,-87.9365,3.585,7.86,1111122 
DISL,ioos:station:DISL:MHPA:1,2009-11-02T20:30:00Z,30.6671,-87.9365,3.665,7.81,1111122 
DISL,ioos:station:DISL:MHPA:1,2009-11-02T21:00:00Z,30.6671,-87.9365,3.75,7.96,1111122 
DISL,ioos:station:DISL:MHPA:1,2009-11-02T21:30:00Z,30.6671,-87.9365,3.847,8.09,1111122 
DISL,ioos:station:DISL:MHPA:1,2009-11-02T22:00:00Z,30.6671,-87.9365,3.92,8.18,1111122 
DISL,ioos:station:DISL:MHPA:1,2009-11-02T22:30:00Z,30.6671,-87.9365,3.975,8.31,1111122 
DISL,ioos:station:DISL:MHPA:1,2009-11-02T23:00:00Z,30.6671,-87.9365,4.078,8.3,1111122 
DISL,ioos:station:DISL:MHPA:1,2009-11-02T23:30:00Z,30.6671,-87.9365,4.152,8.19,1111122 
DISL,ioos:station:DISL:MHPA:1,2009-11-03T00:00:00Z,30.6671,-87.9365,4.241,8.28,1111122 
DISL,ioos:station:DISL:MHPA:1,2009-11-03T00:30:00Z,30.6671,-87.9365,4.313,8.25,1111122 
DISL,ioos:station:DISL:MHPA:1,2009-11-03T01:00:00Z,30.6671,-87.9365,4.381,8.16,1111122 
DISL,ioos:station:DISL:MHPA:1,2009-11-03T01:30:00Z,30.6671,-87.9365,4.459,8.1,1111122 
DISL,ioos:station:DISL:MHPA:1,2009-11-03T02:00:00Z,30.6671,-87.9365,4.529,7.96,1111122 
DISL,ioos:station:DISL:MHPA:1,2009-11-03T02:30:00Z,30.6671,-87.9365,4.589,7.88,1111122 
DISL,ioos:station:DISL:MHPA:1,2009-11-03T03:00:00Z,30.6671,-87.9365,4.626,7.82,1111122 
DISL,ioos:station:DISL:MHPA:1,2009-11-03T03:30:00Z,30.6671,-87.9365,4.657,8.11,1111122 
DISL,ioos:station:DISL:MHPA:1,2009-11-03T04:00:00Z,30.6671,-87.9365,4.652,8.08,1111122 
DISL,ioos:station:DISL:MHPA:1,2009-11-03T04:30:00Z,30.6671,-87.9365,4.629,8.03,1111122 
DISL,ioos:station:DISL:MHPA:1,2009-11-03T05:00:00Z,30.6671,-87.9365,4.578,8.03,1111122 
DISL,ioos:station:DISL:MHPA:1,2009-11-03T05:30:00Z,30.6671,-87.9365,4.521,7.96,1111122 
DISL,ioos:station:DISL:MHPA:1,2009-11-03T06:00:00Z,30.6671,-87.9365,4.422,7.87,1111122 
DISL,ioos:station:DISL:MHPA:1,2009-11-03T06:30:00Z,30.6671,-87.9365,4.285,7.76,1111122 
DISL,ioos:station:DISL:MHPA:1,2009-11-03T07:00:00Z,30.6671,-87.9365,4.144,7.81,1111122 
DISL,ioos:station:DISL:MHPA:1,2009-11-03T07:30:00Z,30.6671,-87.9365,4.013,7.71,1111122 
DISL,ioos:station:DISL:MHPA:1,2009-11-03T08:00:00Z,30.6671,-87.9365,3.921,7.68,1111122 
DISL,ioos:station:DISL:MHPA:1,2009-11-03T08:30:00Z,30.6671,-87.9365,3.8,7.68,1111122 
DISL,ioos:station:DISL:MHPA:1,2009-11-03T09:00:00Z,30.6671,-87.9365,3.635,7.69,1111122 
DISL,ioos:station:DISL:MHPA:1,2009-11-03T09:30:00Z,30.6671,-87.9365,3.528,7.65,1111122 
DISL,ioos:station:DISL:MHPA:1,2009-11-03T10:00:00Z,30.6671,-87.9365,3.431,7.6,1111122 
DISL,ioos:station:DISL:MHPA:1,2009-11-03T10:30:00Z,30.6671,-87.9365,3.312,7.48,1111122 
DISL,ioos:station:DISL:MHPA:1,2009-11-03T11:00:00Z,30.6671,-87.9365,3.208,7.38,1111122 
DISL,ioos:station:DISL:MHPA:1,2009-11-03T11:30:00Z,30.6671,-87.9365,3.094,7.39,1111122 
DISL,ioos:station:DISL:MHPA:1,2009-11-03T12:00:00Z,30.6671,-87.9365,2.976,7.38,1111122 
DISL,ioos:station:DISL:MHPA:1,2009-11-03T12:30:00Z,30.6671,-87.9365,2.851,7.36,1111122 
DISL,ioos:station:DISL:MHPA:1,2009-11-03T13:00:00Z,30.6671,-87.9365,2.736,7.36,1111122 
DISL,ioos:station:DISL:MHPA:1,2009-11-03T13:30:00Z,30.6671,-87.9365,2.634,7.39,1111122 
DISL,ioos:station:DISL:MHPA:1,2009-11-03T14:00:00Z,30.6671,-87.9365,2.556,7.4,1111122 
DISL,ioos:station:DISL:MHPA:1,2009-11-03T14:30:00Z,30.6671,-87.9365,2.508,7.42,1111122 
DISL,ioos:station:DISL:MHPA:1,2009-11-03T15:00:00Z,30.6671,-87.9365,2.446,7.06,1111122 
DISL,ioos:station:DISL:MHPA:1,2009-11-03T15:30:00Z,30.6671,-87.9365,2.402,6.63,1111122 
DISL,ioos:station:DISL:MHPA:1,2009-11-03T16:00:00Z,30.6671,-87.9365,2.395,7.23,1111122 
DISL,ioos:station:DISL:MHPA:1,2009-11-03T16:30:00Z,30.6671,-87.9365,2.422,7.57,1111122 
DISL,ioos:station:DISL:MHPA:1,2009-11-03T17:00:00Z,30.6671,-87.9365,2.473,7.62,1111122 
DISL,ioos:station:DISL:MHPA:1,2009-11-03T17:30:00Z,30.6671,-87.9365,2.503,7.79,1111122 
DISL,ioos:station:DISL:MHPA:1,2009-11-03T18:00:00Z,30.6671,-87.9365,2.557,7.85,1111122 
DISL,ioos:station:DISL:MHPA:1,2009-11-03T18:30:00Z,30.6671,-87.9365,2.709,7.93,1111122 
DISL,ioos:station:DISL:MHPA:1,2009-11-03T19:00:00Z,30.6671,-87.9365,2.843,8.11,1111122 
DISL,ioos:station:DISL:MHPA:1,2009-11-03T19:30:00Z,30.6671,-87.9365,3.009,8.16,1111122 
DISL,ioos:station:DISL:MHPA:1,2009-11-03T20:00:00Z,30.6671,-87.9365,3.17,7.82,1111122 
DISL,ioos:station:DISL:MHPA:1,2009-11-03T20:30:00Z,30.6671,-87.9365,3.263,7.85,1111122 
DISL,ioos:station:DISL:MHPA:1,2009-11-03T21:00:00Z,30.6671,-87.9365,3.398,8.03,1111122 
DISL,ioos:station:DISL:MHPA:1,2009-11-03T21:30:00Z,30.6671,-87.9365,3.529,8.0,1111122 
DISL,ioos:station:DISL:MHPA:1,2009-11-03T22:00:00Z,30.6671,-87.9365,3.659,8.11,1111122 
DISL,ioos:station:DISL:MHPA:1,2009-11-03T22:30:00Z,30.6671,-87.9365,3.823,8.23,1111122 
DISL,ioos:station:DISL:MHPA:1,2009-11-03T23:00:00Z,30.6671,-87.9365,3.968,8.34,1111122 
DISL,ioos:station:DISL:MHPA:1,2009-11-03T23:30:00Z,30.6671,-87.9365,4.054,8.43,1111122 
DISL,ioos:station:DISL:MHPA:1,2009-11-04T00:00:00Z,30.6671,-87.9365,4.132,8.57,1111122 
DISL,ioos:station:DISL:MHPA:1,2009-11-04T00:30:00Z,30.6671,-87.9365,4.24,8.58,1111122 
DISL,ioos:station:DISL:MHPA:1,2009-11-04T01:00:00Z,30.6671,-87.9365,4.341,8.83,1111122 
DISL,ioos:station:DISL:MHPA:1,2009-11-04T01:30:00Z,30.6671,-87.9365,4.395,8.59,1111122 
DISL,ioos:station:DISL:MHPA:1,2009-11-04T02:00:00Z,30.6671,-87.9365,4.502,8.52,1111122 
DISL,ioos:station:DISL:MHPA:1,2009-11-04T02:30:00Z,30.6671,-87.9365,4.627,8.61,1111122 
DISL,ioos:station:DISL:MHPA:1,2009-11-04T03:00:00Z,30.6671,-87.9365,4.741,8.4,1111122 
DISL,ioos:station:DISL:MHPA:1,2009-11-04T03:30:00Z,30.6671,-87.9365,4.821,8.41,1111122 
DISL,ioos:station:DISL:MHPA:1,2009-11-04T04:00:00Z,30.6671,-87.9365,4.842,8.33,1111122 
DISL,ioos:station:DISL:MHPA:1,2009-11-04T04:30:00Z,30.6671,-87.9365,4.848,8.28,1111122 
DISL,ioos:station:DISL:MHPA:1,2009-11-04T05:00:00Z,30.6671,-87.9365,4.847,8.2,1111122 
DISL,ioos:station:DISL:MHPA:1,2009-11-04T05:30:00Z,30.6671,-87.9365,4.801,8.32,1111122 
DISL,ioos:station:DISL:MHPA:1,2009-11-04T06:00:00Z,30.6671,-87.9365,4.695,8.14,1111122 
DISL,ioos:station:DISL:MHPA:1,2009-11-04T06:30:00Z,30.6671,-87.9365,4.596,7.96,1111122 
DISL,ioos:station:DISL:MHPA:1,2009-11-04T07:00:00Z,30.6671,-87.9365,4.49,7.96,1111122 
DISL,ioos:station:DISL:MHPA:1,2009-11-04T07:30:00Z,30.6671,-87.9365,4.39,8.2,1111122 
DISL,ioos:station:DISL:MHPA:1,2009-11-04T08:00:00Z,30.6671,-87.9365,4.253,8.22,1111122 
DISL,ioos:station:DISL:MHPA:1,2009-11-04T08:30:00Z,30.6671,-87.9365,4.134,7.99,1111122 
DISL,ioos:station:DISL:MHPA:1,2009-11-04T09:00:00Z,30.6671,-87.9365,4.005,7.97,1111122 
DISL,ioos:station:DISL:MHPA:1,2009-11-04T09:30:00Z,30.6671,-87.9365,3.841,7.82,1111122 
DISL,ioos:station:DISL:MHPA:1,2009-11-04T10:00:00Z,30.6671,-87.9365,3.688,7.79,1111122 
DISL,ioos:station:DISL:MHPA:1,2009-11-04T10:30:00Z,30.6671,-87.9365,3.522,7.74,1111122 
DISL,ioos:station:DISL:MHPA:1,2009-11-04T11:00:00Z,30.6671,-87.9365,3.357,7.72,1111122 
DISL,ioos:station:DISL:MHPA:1,2009-11-04T11:30:00Z,30.6671,-87.9365,3.228,7.67,1111122 
DISL,ioos:station:DISL:MHPA:1,2009-11-04T12:00:00Z,30.6671,-87.9365,3.114,7.75,1111122 
DISL,ioos:station:DISL:MHPA:1,2009-11-04T12:30:00Z,30.6671,-87.9365,2.997,7.54,1111122 
DISL,ioos:station:DISL:MHPA:1,2009-11-04T13:00:00Z,30.6671,-87.9365,2.902,7.49,1111122 
DISL,ioos:station:DISL:MHPA:1,2009-11-04T13:30:00Z,30.6671,-87.9365,2.82,7.54,1111122 
DISL,ioos:station:DISL:MHPA:1,2009-11-04T14:00:00Z,30.6671,-87.9365,2.757,7.59,1111122 
DISL,ioos:station:DISL:MHPA:1,2009-11-04T14:30:00Z,30.6671,-87.9365,2.684,7.71,1111122 
DISL,ioos:station:DISL:MHPA:1,2009-11-04T15:00:00Z,30.6671,-87.9365,2.614,7.71,1111122 
DISL,ioos:station:DISL:MHPA:1,2009-11-04T15:30:00Z,30.6671,-87.9365,2.565,7.48,1111122 
DISL,ioos:station:DISL:MHPA:1,2009-11-04T16:00:00Z,30.6671,-87.9365,2.526,7.33,1111122 
DISL,ioos:station:DISL:MHPA:1,2009-11-04T16:30:00Z,30.6671,-87.9365,2.507,7.41,1111122 
DISL,ioos:station:DISL:MHPA:1,2009-11-04T17:00:00Z,30.6671,-87.9365,2.5,7.97,1111122 
DISL,ioos:station:DISL:MHPA:1,2009-11-04T17:30:00Z,30.6671,-87.9365,2.5,7.99,1111122 
DISL,ioos:station:DISL:MHPA:1,2009-11-04T18:00:00Z,30.6671,-87.9365,2.534,8.27,1111122 
DISL,ioos:station:DISL:MHPA:1,2009-11-04T18:30:00Z,30.6671,-87.9365,2.643,8.34,1111122 
DISL,ioos:station:DISL:MHPA:1,2009-11-04T19:00:00Z,30.6671,-87.9365,2.765,8.43,1111122 
DISL,ioos:station:DISL:MHPA:1,2009-11-04T19:30:00Z,30.6671,-87.9365,2.89,8.28,1111122 
DISL,ioos:station:DISL:MHPA:1,2009-11-04T20:00:00Z,30.6671,-87.9365,3.051,8.19,1111122 
DISL,ioos:station:DISL:MHPA:1,2009-11-04T20:30:00Z,30.6671,-87.9365,3.25,8.2,1111122 
DISL,ioos:station:DISL:MHPA:1,2009-11-04T21:00:00Z,30.6671,-87.9365,3.393,8.7,1111122 
DISL,ioos:station:DISL:MHPA:1,2009-11-04T21:30:00Z,30.6671,-87.9365,3.572,8.55,1111122 
DISL,ioos:station:DISL:MHPA:1,2009-11-04T22:00:00Z,30.6671,-87.9365,3.732,8.71,1111122 
DISL,ioos:station:DISL:MHPA:1,2009-11-04T22:30:00Z,30.6671,-87.9365,3.841,8.78,1111122 
DISL,ioos:station:DISL:MHPA:1,2009-11-04T23:00:00Z,30.6671,-87.9365,3.936,8.73,1111122 
DISL,ioos:station:DISL:MHPA:1,2009-11-04T23:30:00Z,30.6671,-87.9365,4.054,8.82,1111122 
DISL,ioos:station:DISL:MHPA:1,2009-11-05T00:00:00Z,30.6671,-87.9365,4.151,8.99,1111122 
DISL,ioos:station:DISL:MHPA:1,2009-11-05T00:30:00Z,30.6671,-87.9365,4.238,8.98,1111122 
DISL,ioos:station:DISL:MHPA:1,2009-11-05T01:00:00Z,30.6671,-87.9365,4.363,8.9,1111122 
DISL,ioos:station:DISL:MHPA:1,2009-11-05T01:30:00Z,30.6671,-87.9365,4.47,8.92,1111122 
DISL,ioos:station:DISL:MHPA:1,2009-11-05T02:00:00Z,30.6671,-87.9365,4.597,8.79,1111122 
DISL,ioos:station:DISL:MHPA:1,2009-11-05T02:30:00Z,30.6671,-87.9365,4.709,8.67,1111122 
DISL,ioos:station:DISL:MHPA:1,2009-11-05T03:00:00Z,30.6671,-87.9365,4.811,8.69,1111122 
DISL,ioos:station:DISL:MHPA:1,2009-11-05T03:30:00Z,30.6671,-87.9365,4.923,8.62,1111122 
DISL,ioos:station:DISL:MHPA:1,2009-11-05T04:00:00Z,30.6671,-87.9365,4.999,8.72,1111122 
DISL,ioos:station:DISL:MHPA:1,2009-11-05T04:30:00Z,30.6671,-87.9365,5.053,8.7,1111122 
DISL,ioos:station:DISL:MHPA:1,2009-11-05T05:00:00Z,30.6671,-87.9365,5.048,8.38,1111122 
DISL,ioos:station:DISL:MHPA:1,2009-11-05T05:30:00Z,30.6671,-87.9365,5.033,8.3,1111122 
DISL,ioos:station:DISL:MHPA:1,2009-11-05T06:00:00Z,30.6671,-87.9365,4.992,8.03,1111122 
DISL,ioos:station:DISL:MHPA:1,2009-11-05T06:30:00Z,30.6671,-87.9365,4.911,8.17,1111122 
DISL,ioos:station:DISL:MHPA:1,2009-11-05T07:00:00Z,30.6671,-87.9365,4.86,8.45,1111122 
DISL,ioos:station:DISL:MHPA:1,2009-11-05T07:30:00Z,30.6671,-87.9365,4.675,8.11,1111122 
DISL,ioos:station:DISL:MHPA:1,2009-11-05T08:00:00Z,30.6671,-87.9365,4.582,8.13,1111122 
DISL,ioos:station:DISL:MHPA:1,2009-11-05T08:30:00Z,30.6671,-87.9365,4.449,7.98,1111122 
DISL,ioos:station:DISL:MHPA:1,2009-11-05T09:00:00Z,30.6671,-87.9365,4.27,7.86,1111122 
DISL,ioos:station:DISL:MHPA:1,2009-11-05T09:30:00Z,30.6671,-87.9365,4.109,7.7,1111122 
DISL,ioos:station:DISL:MHPA:1,2009-11-05T10:00:00Z,30.6671,-87.9365,3.946,7.78,1111122 
DISL,ioos:station:DISL:MHPA:1,2009-11-05T10:30:00Z,30.6671,-87.9365,3.77,7.53,1111122 
DISL,ioos:station:DISL:MHPA:1,2009-11-05T11:00:00Z,30.6671,-87.9365,3.634,7.42,1111122 
DISL,ioos:station:DISL:MHPA:1,2009-11-05T11:30:00Z,30.6671,-87.9365,3.468,7.4,1111122 
DISL,ioos:station:DISL:MHPA:1,2009-11-05T12:00:00Z,30.6671,-87.9365,3.328,7.5,1111122 
DISL,ioos:station:DISL:MHPA:1,2009-11-05T12:30:00Z,30.6671,-87.9365,3.203,7.46,1111122 
DISL,ioos:station:DISL:MHPA:1,2009-11-05T13:00:00Z,30.6671,-87.9365,3.112,7.51,1111122 
DISL,ioos:station:DISL:MHPA:1,2009-11-05T13:30:00Z,30.6671,-87.9365,3.016,7.5,1111122 
DISL,ioos:station:DISL:MHPA:1,2009-11-05T14:00:00Z,30.6671,-87.9365,2.899,7.5,1111122 
DISL,ioos:station:DISL:MHPA:1,2009-11-05T14:30:00Z,30.6671,-87.9365,2.771,7.59,1111122 
DISL,ioos:station:DISL:MHPA:1,2009-11-05T15:00:00Z,30.6671,-87.9365,2.672,7.65,1111122 
DISL,ioos:station:DISL:MHPA:1,2009-11-05T15:30:00Z,30.6671,-87.9365,2.59,7.77,1111122 
DISL,ioos:station:DISL:MHPA:1,2009-11-05T16:00:00Z,30.6671,-87.9365,2.495,7.88,1111122 
DISL,ioos:station:DISL:MHPA:1,2009-11-05T16:30:00Z,30.6671,-87.9365,2.386,7.96,1111122 
DISL,ioos:station:DISL:MHPA:1,2009-11-05T17:00:00Z,30.6671,-87.9365,2.28,8.04,1111122 
DISL,ioos:station:DISL:MHPA:1,2009-11-05T17:30:00Z,30.6671,-87.9365,2.198,8.11,1111122 
DISL,ioos:station:DISL:MHPA:1,2009-11-05T18:00:00Z,30.6671,-87.9365,2.135,8.16,1111122 
DISL,ioos:station:DISL:MHPA:1,2009-11-05T18:30:00Z,30.6671,-87.9365,2.083,8.22,1111122 
DISL,ioos:station:DISL:MHPA:1,2009-11-05T19:00:00Z,30.6671,-87.9365,2.054,8.26,1111122 
DISL,ioos:station:DISL:MHPA:1,2009-11-05T19:30:00Z,30.6671,-87.9365,2.069,8.3,1111122 
DISL,ioos:station:DISL:MHPA:1,2009-11-05T20:00:00Z,30.6671,-87.9365,2.135,8.34,1111122 
DISL,ioos:station:DISL:MHPA:1,2009-11-05T20:30:00Z,30.6671,-87.9365,2.324,8.39,1111122 
DISL,ioos:station:DISL:MHPA:1,2009-11-05T21:00:00Z,30.6671,-87.9365,2.576,8.51,1111122 
DISL,ioos:station:DISL:MHPA:1,2009-11-05T21:30:00Z,30.6671,-87.9365,2.801,8.7,1111122 
DISL,ioos:station:DISL:MHPA:1,2009-11-05T22:00:00Z,30.6671,-87.9365,2.995,8.78,1111122 
DISL,ioos:station:DISL:MHPA:1,2009-11-05T22:30:00Z,30.6671,-87.9365,3.185,8.88,1111122 
DISL,ioos:station:DISL:MHPA:1,2009-11-05T23:00:00Z,30.6671,-87.9365,3.369,8.95,1111122 
DISL,ioos:station:DISL:MHPA:1,2009-11-05T23:30:00Z,30.6671,-87.9365,3.538,9.03,1111122 
DISL,ioos:station:DISL:MHPA:1,2009-11-06T00:00:00Z,30.6671,-87.9365,3.657,9.24,1111122 
DISL,ioos:station:DISL:MHPA:1,2009-11-06T00:30:00Z,30.6671,-87.9365,3.801,9.28,1111122 
DISL,ioos:station:DISL:MHPA:1,2009-11-06T01:00:00Z,30.6671,-87.9365,3.893,9.05,1111122 
DISL,ioos:station:DISL:MHPA:1,2009-11-06T01:30:00Z,30.6671,-87.9365,3.991,9.04,1111122 
DISL,ioos:station:DISL:MHPA:1,2009-11-06T02:00:00Z,30.6671,-87.9365,4.052,8.99,1111122 
DISL,ioos:station:DISL:MHPA:1,2009-11-06T02:30:00Z,30.6671,-87.9365,4.203,8.81,1111122 
DISL,ioos:station:DISL:MHPA:1,2009-11-06T03:00:00Z,30.6671,-87.9365,4.358,8.63,1111122 
DISL,ioos:station:DISL:MHPA:1,2009-11-06T03:30:00Z,30.6671,-87.9365,4.457,8.58,1111122 
DISL,ioos:station:DISL:MHPA:1,2009-11-06T04:00:00Z,30.6671,-87.9365,4.553,8.55,1111122 
DISL,ioos:station:DISL:MHPA:1,2009-11-06T04:30:00Z,30.6671,-87.9365,4.596,8.83,1111122 
DISL,ioos:station:DISL:MHPA:1,2009-11-06T05:00:00Z,30.6671,-87.9365,4.728,9.36,1111122 
DISL,ioos:station:DISL:MHPA:1,2009-11-06T05:30:00Z,30.6671,-87.9365,4.798,9.48,1111122 
DISL,ioos:station:DISL:MHPA:1,2009-11-06T06:00:00Z,30.6671,-87.9365,4.754,9.33,1111122 
DISL,ioos:station:DISL:MHPA:1,2009-11-06T06:30:00Z,30.6671,-87.9365,4.788,9.03,1111122 
DISL,ioos:station:DISL:MHPA:1,2009-11-06T07:00:00Z,30.6671,-87.9365,4.724,9.07,1111122 
DISL,ioos:station:DISL:MHPA:1,2009-11-06T07:30:00Z,30.6671,-87.9365,4.689,9.01,1111122 
DISL,ioos:station:DISL:MHPA:1,2009-11-06T08:00:00Z,30.6671,-87.9365,4.585,8.23,1111122 
DISL,ioos:station:DISL:MHPA:1,2009-11-06T08:30:00Z,30.6671,-87.9365,4.503,8.62,1111122 
DISL,ioos:station:DISL:MHPA:1,2009-11-06T09:00:00Z,30.6671,-87.9365,4.366,8.44,1111122 
DISL,ioos:station:DISL:MHPA:1,2009-11-06T09:30:00Z,30.6671,-87.9365,4.277,8.34,1111122 
DISL,ioos:station:DISL:MHPA:1,2009-11-06T10:00:00Z,30.6671,-87.9365,4.127,8.12,1111122 
DISL,ioos:station:DISL:MHPA:1,2009-11-06T10:30:00Z,30.6671,-87.9365,3.982,8.09,1111122 
DISL,ioos:station:DISL:MHPA:1,2009-11-06T11:00:00Z,30.6671,-87.9365,3.835,8.06,1111122 
DISL,ioos:station:DISL:MHPA:1,2009-11-06T11:30:00Z,30.6671,-87.9365,3.689,7.98,1111122 
DISL,ioos:station:DISL:MHPA:1,2009-11-06T12:00:00Z,30.6671,-87.9365,3.528,7.84,1111122 
DISL,ioos:station:DISL:MHPA:1,2009-11-06T12:30:00Z,30.6671,-87.9365,3.372,7.84,1111122 
DISL,ioos:station:DISL:MHPA:1,2009-11-06T13:00:00Z,30.6671,-87.9365,3.244,7.76,1111122 
DISL,ioos:station:DISL:MHPA:1,2009-11-06T13:30:00Z,30.6671,-87.9365,3.125,7.93,1111122 
DISL,ioos:station:DISL:MHPA:1,2009-11-06T14:00:00Z,30.6671,-87.9365,3.023,8.01,1111122 
DISL,ioos:station:DISL:MHPA:1,2009-11-06T14:30:00Z,30.6671,-87.9365,2.926,8.06,1111122 
DISL,ioos:station:DISL:MHPA:1,2009-11-06T15:00:00Z,30.6671,-87.9365,2.83,8.07,1111122 
DISL,ioos:station:DISL:MHPA:1,2009-11-06T15:30:00Z,30.6671,-87.9365,2.757,7.92,1111122 
DISL,ioos:station:DISL:MHPA:1,2009-11-06T16:00:00Z,30.6671,-87.9365,2.686,7.6,1111122 
DISL,ioos:station:DISL:MHPA:1,2009-11-06T16:30:00Z,30.6671,-87.9365,2.607,7.91,1111122 
DISL,ioos:station:DISL:MHPA:1,2009-11-06T17:00:00Z,30.6671,-87.9365,2.546,8.21,1111122 
DISL,ioos:station:DISL:MHPA:1,2009-11-06T17:30:00Z,30.6671,-87.9365,2.48,8.27,1111122 
DISL,ioos:station:DISL:MHPA:1,2009-11-06T18:00:00Z,30.6671,-87.9365,2.421,8.36,1111122 
DISL,ioos:station:DISL:MHPA:1,2009-11-06T18:30:00Z,30.6671,-87.9365,2.383,8.46,1111122 
DISL,ioos:station:DISL:MHPA:1,2009-11-06T19:00:00Z,30.6671,-87.9365,2.372,8.5,1111122 
DISL,ioos:station:DISL:MHPA:1,2009-11-06T19:30:00Z,30.6671,-87.9365,2.4,8.56,1111122 
DISL,ioos:station:DISL:MHPA:1,2009-11-06T20:00:00Z,30.6671,-87.9365,2.444,8.88,1111122 
DISL,ioos:station:DISL:MHPA:1,2009-11-06T20:30:00Z,30.6671,-87.9365,2.52,9.43,1111122 
DISL,ioos:station:DISL:MHPA:1,2009-11-06T21:00:00Z,30.6671,-87.9365,2.655,9.38,1111122 
DISL,ioos:station:DISL:MHPA:1,2009-11-06T21:30:00Z,30.6671,-87.9365,2.797,9.37,1111122 
DISL,ioos:station:DISL:MHPA:1,2009-11-06T22:00:00Z,30.6671,-87.9365,2.967,9.13,1111122 
DISL,ioos:station:DISL:MHPA:1,2009-11-06T22:30:00Z,30.6671,-87.9365,3.079,9.04,1111122 
DISL,ioos:station:DISL:MHPA:1,2009-11-06T23:00:00Z,30.6671,-87.9365,3.239,9.21,1111122 
DISL,ioos:station:DISL:MHPA:1,2009-11-06T23:30:00Z,30.6671,-87.9365,3.379,9.15,1111122 
DISL,ioos:station:DISL:MHPA:1,2009-11-07T00:00:00Z,30.6671,-87.9365,3.535,9.06,1111122 
DISL,ioos:station:DISL:MHPA:1,2009-11-07T00:30:00Z,30.6671,-87.9365,3.687,9.1,1111122 
DISL,ioos:station:DISL:MHPA:1,2009-11-07T01:00:00Z,30.6671,-87.9365,3.794,8.92,1111122 
DISL,ioos:station:DISL:MHPA:1,2009-11-07T01:30:00Z,30.6671,-87.9365,3.905,8.97,1111122 
DISL,ioos:station:DISL:MHPA:1,2009-11-07T02:00:00Z,30.6671,-87.9365,4.011,9.0,1111122 
DISL,ioos:station:DISL:MHPA:1,2009-11-07T02:30:00Z,30.6671,-87.9365,4.124,9.45,1111122 
DISL,ioos:station:DISL:MHPA:1,2009-11-07T03:00:00Z,30.6671,-87.9365,4.244,9.39,1111122 
DISL,ioos:station:DISL:MHPA:1,2009-11-07T03:30:00Z,30.6671,-87.9365,4.373,9.36,1111122 
DISL,ioos:station:DISL:MHPA:1,2009-11-07T04:00:00Z,30.6671,-87.9365,4.502,9.51,1111122 
DISL,ioos:station:DISL:MHPA:1,2009-11-07T04:30:00Z,30.6671,-87.9365,4.64,9.46,1111122 
DISL,ioos:station:DISL:MHPA:1,2009-11-07T05:00:00Z,30.6671,-87.9365,4.723,9.47,1111122 
DISL,ioos:station:DISL:MHPA:1,2009-11-07T05:30:00Z,30.6671,-87.9365,4.846,9.48,1111122 
DISL,ioos:station:DISL:MHPA:1,2009-11-07T06:00:00Z,30.6671,-87.9365,4.88,9.64,1111122 
DISL,ioos:station:DISL:MHPA:1,2009-11-07T06:30:00Z,30.6671,-87.9365,4.925,9.57,1111122 
DISL,ioos:station:DISL:MHPA:1,2009-11-07T07:00:00Z,30.6671,-87.9365,4.94,9.46,1111122 
DISL,ioos:station:DISL:MHPA:1,2009-11-07T07:30:00Z,30.6671,-87.9365,4.909,9.36,1111122 
DISL,ioos:station:DISL:MHPA:1,2009-11-07T08:00:00Z,30.6671,-87.9365,4.891,9.23,1111122 
DISL,ioos:station:DISL:MHPA:1,2009-11-07T08:30:00Z,30.6671,-87.9365,4.794,9.28,1111122 
DISL,ioos:station:DISL:MHPA:1,2009-11-07T09:00:00Z,30.6671,-87.9365,4.763,9.32,1111122 
DISL,ioos:station:DISL:MHPA:1,2009-11-07T09:30:00Z,30.6671,-87.9365,4.653,9.11,1111122 
DISL,ioos:station:DISL:MHPA:1,2009-11-07T10:00:00Z,30.6671,-87.9365,4.551,8.08,1111122 
DISL,ioos:station:DISL:MHPA:1,2009-11-07T10:30:00Z,30.6671,-87.9365,4.419,8.42,1111122 
DISL,ioos:station:DISL:MHPA:1,2009-11-07T11:00:00Z,30.6671,-87.9365,4.265,8.67,1111122 
DISL,ioos:station:DISL:MHPA:1,2009-11-07T11:30:00Z,30.6671,-87.9365,4.139,8.39,1111122 
DISL,ioos:station:DISL:MHPA:1,2009-11-07T12:00:00Z,30.6671,-87.9365,4.004,8.35,1111122 
DISL,ioos:station:DISL:MHPA:1,2009-11-07T12:30:00Z,30.6671,-87.9365,3.828,8.2,1111122 
DISL,ioos:station:DISL:MHPA:1,2009-11-07T13:00:00Z,30.6671,-87.9365,3.677,7.97,1111122 
DISL,ioos:station:DISL:MHPA:1,2009-11-07T13:30:00Z,30.6671,-87.9365,3.58,7.93,1111122 
DISL,ioos:station:DISL:MHPA:1,2009-11-07T14:00:00Z,30.6671,-87.9365,3.505,7.82,1111122 
DISL,ioos:station:DISL:MHPA:1,2009-11-07T14:30:00Z,30.6671,-87.9365,3.421,7.87,1111122 
DISL,ioos:station:DISL:MHPA:1,2009-11-07T15:00:00Z,30.6671,-87.9365,3.334,7.99,1111122 
DISL,ioos:station:DISL:MHPA:1,2009-11-07T15:30:00Z,30.6671,-87.9365,3.235,8.03,1111122 